Temp_Advection
nan nan nan nan nan nan nan nan nan nan nan nan nan nan nan nan nan nan nan nan nan nan nan nan nan nan nan nan nan nan nan nan nan nan nan nan nan nan nan nan nan nan nan nan
nan -1 -0 -1 -0 0 -0 -0 -0 -0 -1 -1 -0 0 0 0 0 0 0 0 0 -0 -0 -0 -0 -0 -0 -0 0 -0 0 0 0 -0 -0 0 0 0 0 0 1 1 1 nan
nan -0 -0 -1 -1 -0 -0 0 0 0 -1 -0 -0 -0 -0 0 0 0 0 0 0 -0 -0 -0 -0 -0 -0 0 -0 0 0 0 0 -0 0 0 -0 -0 1 1 0 0 0 nan
nan -0 -0 -1 -0 0 -0 -0 -0 0 -0 -0 0 0 -0 0 0 0 0 0 0 -0 -0 -0 -0 0 0 0 0 0 0 0 0 0 1 0 -0 0 1 1 1 0 0 nan
nan -0 -1 -1 -0 -0 -0 -0 -0 -0 -0 -0 -0 -0 -0 -0 0 -0 0 0 0 -0 -0 -0 -0 -0 0 0 0 1 1 1 1 1 0 0 1 1 0 -0 -0 -0 0 nan
nan -0 -0 0 0 0 0 -0 -0 -0 -0 -0 -1 -0 -0 -0 -0 -0 0 0 0 0 0 -0 -0 0 0 0 0 1 1 1 1 1 0 1 1 1 0 0 0 -0 -0 nan
nan -0 -0 -0 -0 -0 -0 0 0 -0 -0 -0 -0 -0 -0 0 0 0 0 0 -0 0 0 0 -0 0 0 -0 0 0 1 1 1 1 1 0 0 1 0 -0 -0 0 0 nan
nan -0 -1 0 -0 -0 -0 0 -0 -0 -0 -0 0 0 -0 -0 0 -0 0 0 0 -0 -0 -0 -0 -0 -0 -1 -0 0 0 0 1 1 2 1 1 1 1 1 -0 -0 -0 nan
nan -0 -0 -0 -0 -0 -0 -0 -0 -0 -0 -0 -1 -1 -0 -0 0 0 0 0 0 -0 -0 -0 0 0 -0 -1 -1 -0 0 0 0 0 1 0 0 1 1 1 0 -0 -0 nan
nan -0 -0 -1 -1 -1 -1 -1 -1 -0 -0 -0 -0 -1 -1 -0 -0 -0 0 0 0 0 -0 -0 0 0 0 -0 -0 -0 -0 0 0 0 0 0 -0 -0 -0 0 0 -0 0 nan
nan -1 -1 -1 -0 -0 -1 -1 -1 -1 -1 -1 -0 -1 -1 -0 -0 -0 -0 -0 0 0 0 -0 0 0 0 -0 -0 -0 -1 -0 -0 -0 -0 -0 -0 -0 0 0 0 0 0 nan
nan -1 -0 -1 -1 -0 -0 -0 -0 -0 -1 -0 -0 -1 -1 -0 -0 -0 -0 0 0 0 0 0 -0 -0 0 0 -0 -0 -1 -1 -1 -1 -1 -1 -1 -1 -0 0 0 0 0 nan
nan -1 -0 -0 -1 -0 -0 -0 -0 -0 -0 -0 -0 -1 -1 -0 -0 -0 -0 -0 0 0 0 -0 -0 -0 -0 -0 -0 -0 -0 -1 -1 -0 -1 -1 -0 -0 -0 -0 -0 0 0 nan
nan -0 -1 -1 -1 -1 -0 -0 -0 -0 -0 -1 -0 -0 -0 -0 -1 -0 -0 0 0 0 0 0 0 0 -0 0 -0 0 0 -0 -0 -0 -0 -0 -0 0 0 -0 -0 -0 -0 nan
nan -1 -1 -2 -1 -2 -1 -1 -1 -0 -0 -0 -0 -0 -0 -1 -1 -1 -0 0 0 0 0 0 0 -0 0 0 0 0 0 0 0 0 0 0 0 0 0 0 0 -0 -0 nan
nan -2 -2 -2 -2 -2 -2 -2 -2 -2 -1 -0 -0 -0 0 -0 -1 -0 -0 -0 -0 -0 -0 0 -0 0 0 -0 0 0 0 0 0 0 -0 0 0 0 0 0 0 0 0 nan
nan -1 -1 -1 -2 -2 -2 -2 -3 -3 -2 -1 -1 -0 -0 0 0 -0 -1 -0 -0 0 0 1 0 0 0 0 0 -0 0 0 0 0 0 0 0 0 0 0 0 0 0 nan
nan -1 -1 -1 -1 -1 -2 -2 -2 -2 -3 -2 -1 -0 -0 -0 0 1 -0 -0 0 0 0 0 1 0 1 0 0 0 0 0 1 0 0 0 0 0 0 0 0 0 0 nan
nan -1 -0 -0 -0 -0 -1 -2 -2 -2 -3 -2 -1 -1 -0 -0 -0 -0 0 0 0 -0 0 1 1 1 1 1 1 1 1 1 0 0 0 0 0 0 0 0 0 0 0 nan
nan -0 -0 -0 -1 -1 -0 1 0 -2 -2 -1 -1 -1 -0 -0 0 0 0 0 0 0 1 1 1 1 1 1 1 1 1 0 0 0 0 0 0 0 0 0 0 0 0 nan
nan -0 -0 -0 -1 -1 -0 0 -0 -0 -1 -1 -0 -0 -0 0 0 0 0 1 1 1 1 1 1 1 1 1 1 1 1 1 1 1 1 0 0 0 0 0 0 0 0 nan
nan -0 -0 -0 -0 -0 -0 0 0 0 -0 0 0 0 0 1 1 1 1 1 0 1 1 1 1 1 1 1 1 1 1 1 1 1 0 0 0 0 0 0 0 0 0 nan
nan -0 -0 -0 0 0 0 0 0 0 0 0 0 1 1 1 1 1 1 1 1 1 1 1 1 1 1 1 1 0 1 1 1 0 -0 0 0 0 0 0 0 0 0 nan
nan 0 0 0 0 -0 -0 0 1 0 0 0 0 0 1 1 0 1 1 1 1 1 1 1 1 1 1 0 0 0 0 0 0 -0 0 0 0 0 0 0 0 0 0 nan
nan 0 0 -0 -1 0 1 1 1 0 0 0 0 1 0 0 -0 0 1 1 1 0 0 1 1 1 1 0 0 0 0 0 -0 0 0 0 0 0 0 0 0 1 1 nan
nan 0 0 0 0 1 1 0 0 0 0 0 0 0 0 0 0 0 0 0 0 0 -0 0 0 0 0 0 0 0 -0 -0 0 0 0 0 0 0 0 0 0 0 0 nan
nan nan nan nan nan nan nan nan nan nan nan nan nan nan nan nan nan nan nan nan nan nan nan nan nan nan nan nan nan nan nan nan nan nan nan nan nan nan nan nan nan nan nan nan
Wind_Speed
13 11 9 14 18 16 16 19 10 30 13 18 12 7 11 12 3 6 7 10 13 17 21 20 12 10 7 5 7 12 14 21 28 32 40 31 34 33 32 30 31 31 30 28
8 13 14 20 18 18 20 20 17 21 24 15 9 11 13 10 2 4 4 7 13 17 21 21 11 8 6 8 7 9 16 17 26 30 37 40 32 33 31 28 29 32 29 24
9 7 10 12 9 5 2 5 7 13 16 5 6 7 9 6 4 5 4 7 11 15 20 20 13 8 3 7 9 11 17 22 25 30 31 34 40 35 21 26 30 28 27 23
5 6 5 6 19 7 10 3 6 7 7 7 8 12 10 7 6 6 6 7 11 12 15 18 11 6 6 3 11 12 14 20 24 28 32 35 37 29 26 35 33 30 26 23
4 4 12 11 4 5 5 5 10 7 8 9 14 11 7 3 5 4 4 8 8 8 12 16 10 4 3 5 6 16 19 20 25 24 30 29 31 38 42 36 30 27 24 22
3 4 4 4 4 11 3 2 11 13 8 9 19 5 2 10 7 3 5 5 5 6 11 15 8 5 4 5 11 16 21 24 28 30 26 19 41 42 35 28 28 26 24 20
11 9 7 5 10 9 1 2 10 18 19 19 5 8 15 13 7 4 5 5 2 4 9 14 7 6 9 9 12 15 18 24 32 33 29 43 40 34 30 29 27 25 22 20
4 6 9 13 4 4 3 8 12 14 19 20 22 20 18 12 7 6 5 2 2 1 7 12 13 14 19 18 14 16 21 25 30 41 41 36 32 32 28 26 24 24 22 20
3 3 6 11 3 6 13 13 6 12 17 20 22 24 22 18 11 7 6 4 3 2 5 9 13 19 16 22 27 30 31 36 37 32 28 34 35 32 28 24 22 22 20 18
5 4 11 23 23 22 20 19 14 17 20 18 22 24 27 22 15 10 7 5 4 5 7 9 11 14 14 19 22 21 26 26 25 27 30 30 29 27 26 25 22 20 18 15
13 18 25 30 20 26 33 30 28 26 24 25 22 24 20 19 14 13 10 6 6 8 9 11 12 14 16 19 22 24 25 26 27 27 27 26 24 22 20 17 14 14 13 11
15 29 27 33 40 43 39 36 36 30 30 27 21 23 16 15 12 12 12 9 7 12 12 14 15 16 17 19 20 24 27 27 26 26 27 26 25 24 18 14 14 12 11 10
27 34 32 36 34 36 34 34 30 29 25 24 25 22 16 16 16 13 13 13 13 15 15 14 14 18 20 22 23 23 24 26 26 25 25 24 22 20 21 19 16 14 11 8
29 34 36 37 31 36 36 35 34 36 33 27 26 25 23 22 21 17 14 14 15 14 16 14 14 19 20 22 23 22 22 22 23 23 23 22 20 20 18 17 17 15 12 9
22 28 31 38 39 38 37 36 31 31 31 26 26 28 26 26 24 21 14 13 15 18 20 19 16 21 23 23 23 23 24 25 24 23 22 21 20 18 16 15 14 12 11 10
30 29 31 33 37 31 29 29 25 28 28 28 26 26 25 24 22 20 16 15 17 24 27 23 19 18 22 24 24 23 23 23 23 23 22 20 19 18 16 14 13 11 10 9
30 33 31 32 34 39 33 32 31 32 26 24 26 23 22 22 21 21 21 19 17 18 26 27 23 22 22 23 24 24 25 25 24 23 22 20 18 16 14 13 12 11 10 9
28 32 36 35 37 37 40 37 31 29 30 25 23 23 23 17 19 21 23 19 19 20 23 29 27 22 25 25 25 26 26 26 26 23 21 19 17 15 14 13 12 11 10 8
29 31 33 33 33 36 38 39 37 31 30 24 21 23 21 20 18 17 18 19 22 24 24 28 29 25 24 25 27 26 27 26 24 22 19 17 17 16 15 13 12 11 9 8
30 29 29 30 27 25 31 31 28 26 23 18 17 20 20 18 17 14 14 17 22 22 19 24 28 27 26 25 25 25 25 24 22 20 18 17 15 14 13 12 11 10 10 9
29 28 29 26 24 19 14 11 8 10 10 12 16 15 14 13 11 11 14 17 18 17 17 24 27 28 29 23 22 21 21 20 19 17 15 13 14 14 13 11 10 10 10 10
27 26 27 26 23 19 14 6 4 4 7 8 9 10 10 9 11 14 12 14 17 18 21 22 24 26 27 21 22 21 20 19 17 16 14 14 14 12 11 11 10 10 11 12
25 25 25 26 27 24 21 19 14 9 7 7 7 8 10 12 12 14 18 16 17 18 22 25 25 22 24 25 24 22 21 21 19 14 14 13 12 11 11 10 10 11 12 13
28 28 25 25 25 28 30 27 24 22 20 17 18 16 14 16 18 17 19 18 18 21 23 23 23 22 23 23 21 19 16 13 12 14 13 12 11 10 10 11 11 12 13 15
29 31 33 33 33 32 29 27 26 27 26 26 26 25 25 27 30 28 26 26 26 26 25 22 21 20 20 19 17 14 12 12 11 10 10 10 9 10 11 12 13 15 16 17
29 30 31 32 33 32 32 33 35 33 33 33 32 30 28 27 26 26 25 24 24 23 23 21 18 17 15 13 11 9 9 9 9 8 8 9 9 10 12 13 14 15 15 16
22 25 26 28 29 29 29 28 29 30 28 28 28 27 27 26 25 24 23 22 21 20 18 17 15 13 11 10 9 8 6 5 6 7 9 10 10 11 12 12 13 13 14 15
Wind_Direction
270 289 306 292 279 267 250 254 245 267 271 282 306 334 333 317 12 11 344 355 1 356 352 343 322 297 251 237 245 234 219 213 197 186 183 191 189 190 195 186 182 180 173 169
298 298 285 280 279 270 255 256 253 259 273 284 299 303 301 309 323 307 322 340 353 1 357 350 345 314 266 227 233 226 220 208 197 172 190 196 196 188 184 180 174 170 165 171
281 286 326 291 261 323 295 271 250 243 256 308 312 324 320 327 293 282 292 332 336 347 1 0 358 354 288 225 225 213 204 196 194 193 190 193 191 189 173 190 171 167 162 153
287 328 242 258 321 292 254 313 13 346 2 354 312 305 303 298 288 292 290 319 322 339 357 1 1 25 84 68 213 215 203 196 196 196 190 179 179 186 184 159 157 155 151 151
251 229 295 297 10 15 26 55 9 347 348 352 332 317 36 326 292 304 288 289 323 346 360 3 5 37 108 188 203 184 189 194 190 195 175 160 172 166 159 153 153 151 147 152
234 253 272 97 38 6 332 99 357 352 355 353 342 11 305 347 322 313 297 305 328 340 1 5 20 46 81 123 166 168 175 178 176 176 169 181 158 150 147 152 151 148 150 156
234 245 284 5 335 342 59 340 10 20 11 10 6 329 320 330 314 291 286 322 12 345 18 23 58 75 100 116 145 158 166 169 166 164 169 157 149 147 151 149 150 150 154 158
206 235 255 355 20 45 335 1 19 15 13 7 8 0 351 344 308 316 309 312 285 63 65 57 81 106 103 98 129 144 156 157 158 150 147 147 152 144 147 149 150 159 163 162
245 242 321 345 40 322 319 301 330 6 356 354 351 355 358 349 330 305 301 301 261 187 129 105 104 127 99 110 110 113 126 133 138 145 151 151 144 142 148 155 165 164 168 169
315 271 316 316 315 319 21 3 341 334 329 334 332 329 332 340 332 306 308 282 265 216 178 159 151 147 131 138 145 140 144 146 147 148 147 145 143 147 159 169 173 172 169 169
287 296 294 286 302 322 327 325 324 320 321 321 320 318 319 317 329 311 270 237 282 236 201 190 178 175 169 155 155 152 149 148 149 148 147 149 156 162 167 166 171 168 168 170
274 277 285 291 295 299 302 303 302 301 306 308 310 314 306 294 327 310 288 233 245 234 209 202 194 182 177 175 172 168 163 161 160 159 160 162 164 163 165 167 168 169 169 174
269 281 285 283 288 290 290 295 295 291 293 293 293 294 279 278 300 306 289 258 228 240 219 205 204 196 188 185 185 185 178 172 171 170 168 169 171 175 171 170 172 174 171 166
294 287 287 291 292 294 293 290 288 285 285 281 278 276 267 277 294 286 277 273 235 234 223 202 195 206 195 201 192 190 188 183 178 175 176 177 180 183 186 183 177 174 176 183
303 299 297 292 292 293 291 293 292 286 284 278 271 272 269 276 278 276 266 257 233 214 225 193 210 206 202 200 196 193 191 188 185 184 184 186 186 185 185 185 185 187 189 195
309 305 303 300 299 300 298 298 299 287 285 279 271 269 271 273 274 268 256 250 229 218 209 204 194 205 203 199 198 195 193 193 190 190 190 192 192 191 189 190 192 196 201 207
314 312 310 300 298 298 293 290 288 279 281 282 273 268 264 272 273 263 253 256 242 230 218 204 193 198 201 203 199 197 196 195 196 196 198 198 196 195 197 202 205 206 211 218
310 303 302 297 294 292 288 285 282 278 279 274 275 268 264 257 268 266 260 253 234 223 215 209 196 194 199 195 201 201 198 197 195 198 198 198 199 202 207 210 214 217 221 229
325 320 317 312 305 296 288 279 273 270 271 276 264 265 260 263 266 270 255 243 224 218 213 206 208 196 195 200 197 201 197 196 195 196 199 200 202 206 211 215 219 225 231 241
339 337 335 327 321 314 301 286 273 267 268 269 265 260 261 261 268 258 233 230 224 222 213 201 197 196 197 194 192 199 196 196 197 196 197 202 206 211 212 217 224 233 244 254
352 354 355 348 341 337 350 321 279 266 270 257 248 255 251 254 249 229 216 210 207 205 195 195 191 189 189 192 181 191 190 190 194 198 200 205 211 212 216 223 231 242 255 264
5 10 14 15 16 17 24 45 105 207 236 239 232 231 231 212 202 192 184 193 180 177 182 180 179 180 184 182 171 177 178 181 186 191 199 216 215 216 223 229 237 249 262 272
20 24 30 34 38 42 51 60 67 77 99 117 139 159 167 161 167 174 166 167 168 166 166 166 167 170 167 166 169 170 172 183 194 192 204 206 212 220 227 238 252 265 272 273
33 37 42 47 52 57 57 63 72 80 88 94 100 108 118 121 115 120 126 131 142 150 148 148 152 157 159 159 163 173 176 169 183 194 200 207 217 229 243 256 264 268 269 267
39 44 48 52 55 58 64 71 79 82 88 94 99 105 113 116 116 119 122 125 129 128 126 133 137 142 146 147 145 147 161 176 188 199 209 218 230 244 255 262 263 266 267 271
43 45 49 52 55 57 64 69 71 74 79 81 85 90 95 99 104 108 111 114 115 116 114 112 113 118 122 126 134 152 172 185 193 207 229 245 255 263 269 271 273 275 277 277
43 44 47 48 51 54 55 58 65 65 68 74 77 79 83 86 88 91 93 94 94 95 98 102 106 111 122 137 155 172 186 211 234 249 257 264 270 274 276 277 278 279 278 278
Height
1498 1494 1492 1490 1487 1486 1489 1480 1491 1448 1465 1453 1452 1449 1447 1445 1444 1443 1443 1441 1437 1432 1427 1422 1419 1418 1418 1418 1419 1421 1424 1426 1429 1432 1435 1444 1450 1459 1465 1471 1476 1481 1485 1490
1503 1494 1491 1483 1475 1472 1468 1466 1466 1460 1454 1451 1449 1447 1445 1444 1443 1442 1442 1440 1437 1433 1427 1421 1417 1416 1416 1417 1418 1420 1423 1426 1430 1432 1437 1439 1450 1459 1465 1470 1475 1481 1486 1492
1500 1494 1490 1484 1461 1458 1454 1452 1452 1457 1449 1450 1448 1445 1444 1442 1442 1441 1441 1440 1437 1433 1428 1423 1418 1416 1415 1415 1418 1420 1423 1426 1430 1434 1437 1443 1451 1457 1464 1471 1477 1482 1489 1494
1504 1500 1500 1459 1454 1453 1450 1449 1450 1449 1448 1448 1447 1444 1443 1442 1441 1441 1440 1440 1438 1434 1430 1425 1420 1417 1416 1417 1418 1420 1424 1427 1430 1434 1438 1442 1450 1457 1465 1473 1478 1484 1489 1495
1507 1497 1473 1463 1458 1458 1457 1459 1458 1455 1452 1449 1446 1443 1442 1442 1441 1441 1440 1439 1438 1435 1431 1427 1422 1419 1418 1419 1419 1421 1423 1427 1431 1435 1440 1447 1452 1457 1465 1472 1478 1485 1491 1495
1497 1495 1483 1461 1459 1456 1454 1462 1462 1458 1455 1451 1447 1449 1446 1443 1442 1441 1439 1438 1438 1436 1433 1429 1424 1421 1420 1419 1421 1423 1426 1429 1433 1438 1441 1447 1454 1460 1466 1473 1479 1485 1490 1496
1497 1495 1473 1463 1458 1455 1457 1474 1463 1462 1459 1455 1454 1453 1448 1444 1442 1441 1440 1439 1439 1438 1435 1431 1427 1425 1423 1423 1424 1426 1429 1432 1436 1440 1443 1451 1457 1462 1468 1475 1481 1487 1493 1499
1493 1491 1484 1465 1461 1465 1469 1465 1464 1462 1461 1458 1455 1452 1448 1444 1442 1441 1440 1440 1440 1440 1438 1436 1432 1431 1429 1428 1428 1430 1433 1436 1441 1445 1450 1456 1461 1467 1473 1479 1485 1490 1495 1499
1487 1473 1465 1466 1467 1466 1465 1464 1463 1462 1461 1459 1456 1453 1450 1446 1443 1441 1441 1440 1440 1441 1441 1440 1439 1438 1436 1436 1437 1438 1441 1445 1449 1454 1458 1462 1466 1471 1478 1484 1488 1492 1497 1501
1484 1466 1464 1464 1465 1466 1463 1464 1463 1462 1460 1457 1455 1452 1449 1446 1444 1442 1441 1440 1440 1441 1442 1442 1443 1443 1442 1443 1444 1446 1447 1451 1454 1458 1462 1467 1471 1476 1481 1486 1491 1495 1498 1501
1474 1470 1466 1462 1462 1463 1462 1463 1461 1460 1458 1456 1453 1450 1448 1445 1443 1441 1439 1440 1441 1441 1442 1443 1444 1446 1446 1447 1448 1450 1453 1456 1459 1463 1466 1470 1476 1481 1485 1489 1493 1495 1498 1501
1476 1470 1469 1465 1462 1460 1458 1456 1455 1455 1453 1452 1451 1448 1445 1443 1441 1440 1438 1439 1439 1440 1440 1441 1444 1446 1448 1450 1452 1453 1456 1459 1462 1465 1469 1473 1477 1481 1486 1490 1493 1496 1499 1502
1469 1466 1463 1457 1457 1454 1452 1451 1449 1448 1447 1445 1445 1444 1442 1439 1438 1437 1436 1436 1436 1438 1438 1440 1443 1446 1448 1451 1453 1455 1457 1460 1464 1468 1471 1475 1479 1482 1485 1490 1494 1497 1499 1501
1464 1461 1455 1452 1450 1447 1444 1443 1441 1440 1438 1438 1437 1436 1436 1435 1433 1433 1432 1432 1433 1435 1437 1438 1442 1444 1448 1450 1453 1456 1460 1462 1465 1469 1472 1476 1479 1483 1486 1489 1492 1495 1498 1501
1460 1457 1453 1446 1442 1440 1437 1434 1433 1430 1429 1429 1429 1429 1429 1428 1428 1428 1427 1427 1428 1430 1433 1435 1439 1441 1445 1448 1451 1455 1458 1461 1465 1469 1473 1476 1480 1483 1487 1490 1493 1495 1497 1499
1455 1451 1447 1442 1434 1433 1431 1427 1426 1423 1421 1421 1421 1421 1421 1422 1421 1422 1422 1422 1422 1423 1426 1430 1433 1439 1442 1445 1449 1454 1458 1462 1465 1469 1472 1476 1479 1482 1485 1488 1491 1493 1495 1497
1450 1441 1439 1434 1431 1424 1422 1421 1419 1417 1415 1414 1413 1414 1414 1414 1415 1415 1416 1417 1418 1419 1422 1426 1429 1434 1439 1443 1447 1452 1456 1460 1464 1467 1471 1474 1477 1480 1484 1487 1489 1492 1494 1496
1448 1441 1434 1429 1422 1416 1410 1409 1409 1408 1406 1406 1407 1407 1408 1407 1407 1408 1409 1411 1413 1414 1417 1422 1426 1429 1435 1440 1444 1449 1453 1458 1462 1465 1469 1473 1477 1480 1483 1486 1488 1490 1492 1493
1441 1433 1426 1418 1412 1406 1399 1395 1396 1398 1398 1398 1399 1400 1401 1401 1401 1401 1403 1405 1407 1408 1411 1416 1423 1426 1430 1436 1441 1446 1450 1455 1460 1464 1469 1472 1476 1479 1481 1484 1486 1488 1489 1491
1435 1428 1419 1410 1403 1397 1388 1383 1384 1387 1389 1391 1392 1393 1394 1395 1395 1396 1397 1401 1403 1405 1409 1413 1418 1423 1427 1432 1439 1444 1449 1454 1459 1463 1466 1470 1474 1477 1479 1481 1483 1486 1487 1488
1432 1424 1416 1406 1398 1391 1383 1377 1378 1382 1384 1386 1388 1389 1390 1391 1391 1393 1394 1398 1401 1404 1407 1411 1415 1421 1425 1429 1435 1443 1448 1453 1458 1462 1465 1469 1472 1474 1476 1479 1481 1482 1484 1485
1432 1424 1416 1408 1400 1393 1387 1382 1382 1383 1383 1384 1385 1387 1388 1389 1390 1392 1395 1398 1400 1403 1406 1410 1415 1420 1423 1428 1434 1441 1446 1451 1456 1460 1463 1467 1469 1472 1474 1476 1477 1478 1480 1481
1434 1427 1420 1413 1406 1400 1394 1389 1387 1386 1386 1387 1387 1388 1390 1390 1392 1394 1395 1399 1402 1405 1408 1411 1415 1419 1422 1428 1434 1439 1445 1449 1453 1457 1461 1463 1467 1469 1471 1472 1474 1475 1476 1477
1439 1432 1425 1419 1413 1406 1402 1399 1396 1395 1394 1394 1394 1394 1396 1395 1397 1400 1401 1403 1406 1410 1412 1415 1418 1422 1426 1430 1435 1441 1445 1449 1453 1456 1459 1462 1464 1466 1468 1469 1470 1471 1471 1471
1445 1439 1433 1426 1420 1416 1414 1411 1407 1405 1403 1402 1402 1402 1402 1402 1402 1406 1407 1410 1413 1414 1418 1422 1424 1427 1431 1435 1438 1443 1447 1451 1454 1456 1458 1460 1461 1463 1464 1464 1465 1465 1466 1466
1451 1446 1442 1437 1433 1430 1426 1422 1419 1418 1416 1414 1414 1414 1414 1414 1414 1415 1417 1419 1421 1423 1425 1428 1430 1433 1436 1439 1443 1447 1450 1452 1454 1455 1457 1458 1458 1459 1460 1460 1461 1461 1461 1461
1457 1453 1449 1445 1441 1438 1437 1434 1431 1430 1429 1428 1426 1426 1425 1424 1424 1426 1427 1428 1429 1431 1433 1435 1437 1439 1441 1444 1446 1449 1450 1451 1452 1454 1454 1455 1455 1455 1455 1456 1456 1456 1456 1456